Weather History for Louisburg, NC

Change the Weather History Date:

Wednesday, March 27, 2013

  Actual Average (KRDU) Record (KRDU)
Temperature  
Mean Temperature 41 °F 55 °F  
Max Temperature 50 °F 67 °F 87 °F (2007)
Min Temperature 32 °F 43 °F 20 °F (1955)
Degree Days  
Heating Degree Days 24 11  
Month to date heating degree days 385  
Since 1 July heating degree days 2957  
Cooling Degree Days 0 0  
Month to date cooling degree days 0  
Year to date cooling degree days 1  
Moisture  
Dew Point 23 °F    
Average Humidity 52    
Maximum Humidity 81    
Minimum Humidity 30    
Precipitation  
Precipitation 0.00 in 0.13 in 1.46 in (1891)
Month to date precipitation 3.59  
Year to date precipitation 10.32  
Snow  
Snow 0.00 in 0.00 in 2.00 in (1947)
Month to date snowfall 0.5  
Since 1 July snowfall 6.0  
Snow Depth -    
Sea Level Pressure  
Sea Level Pressure 30.15 in    
Wind  
Wind Speed 5 mph (WNW)    
Max Wind Speed 10 mph    
Max Gust Speed 23 mph    
Visibility 10 miles    
Events      
T = Trace of Precipitation, MM = Missing Value Source: NWS Daily Summary

Daily Weather History Graph

Daily Weather History Graph

Search for Another Location

Airport:

Trip Planner

Search our weather history database for the weather conditions in past years. The results will help you decide how hot, cold, wet, or windy it might be!

Date:

Astronomy

Mar. 27, 2013 Rise Set
Actual Time 7:06 AM EDT 7:31 PM EDT
Civil Twilight 6:40 AM EDT 7:56 PM EDT
Nautical Twilight 6:10 AM EDT 8:27 PM EDT
Astronomical Twilight 5:40 AM EDT 8:57 PM EDT
Moon 8:10 PM EDT (3/27) 6:57 AM EDT (3/27)
Length of Visible Light 13h 16m
Length of Day
12h 24m
Full, 100% of the Moon is Illuminated
Mar 27
Full
Apr 3
Last Quarter
Apr 10
New
Apr 18
First Quarter
Apr 25
Full

Hourly Weather History & Observations

Time (EDT) Temp. Windchill Dew Point Humidity Pressure Visibility Wind Dir Wind Speed Gust Speed Precip Events Conditions
12:15 AM 37.4 °F 34.9 °F 26.6 °F 65% 30.10 in 10.0 mi WNW 3.5 mph - N/A   Clear
12:35 AM 37.4 °F 34.9 °F 26.6 °F 65% 30.10 in 10.0 mi WNW 3.5 mph - N/A   Clear
12:55 AM 37.4 °F 33.8 °F 26.6 °F 65% 30.10 in 10.0 mi WNW 4.6 mph - N/A   Clear
1:15 AM 37.4 °F 32.8 °F 26.6 °F 65% 30.10 in 10.0 mi WNW 5.8 mph - N/A   Clear
1:35 AM 37.4 °F 34.9 °F 26.6 °F 65% 30.10 in 10.0 mi West 3.5 mph - N/A   Clear
1:55 AM 35.6 °F 31.7 °F 28.4 °F 75% 30.10 in 10.0 mi WNW 4.6 mph - N/A   Clear
2:15 AM 35.6 °F 31.7 °F 28.4 °F 75% 30.10 in 10.0 mi WNW 4.6 mph - N/A   Clear
2:35 AM 35.6 °F 32.8 °F 28.4 °F 75% 30.10 in 10.0 mi WNW 3.5 mph - N/A   Clear
2:55 AM 35.6 °F - 28.4 °F 75% 30.10 in 10.0 mi Calm Calm - N/A   Clear
3:15 AM 35.6 °F 32.8 °F 28.4 °F 75% 30.09 in 10.0 mi WNW 3.5 mph - N/A   Clear
3:35 AM 35.6 °F 32.8 °F 26.6 °F 70% 30.09 in 10.0 mi WNW 3.5 mph - N/A   Clear
3:55 AM 35.6 °F 32.8 °F 26.6 °F 70% 30.10 in 10.0 mi WNW 3.5 mph - N/A   Clear
4:15 AM 33.8 °F 29.6 °F 26.6 °F 75% 30.10 in 10.0 mi West 4.6 mph - N/A   Clear
4:35 AM 33.8 °F - 26.6 °F 75% 30.10 in 10.0 mi Calm Calm - N/A   Clear
4:55 AM 33.8 °F 30.8 °F 26.6 °F 75% 30.10 in 10.0 mi WNW 3.5 mph - N/A   Clear
5:15 AM 33.8 °F 30.8 °F 26.6 °F 75% 30.11 in 10.0 mi WNW 3.5 mph - N/A   Clear
5:35 AM 33.8 °F 30.8 °F 26.6 °F 75% 30.11 in 10.0 mi WNW 3.5 mph - N/A   Clear
5:55 AM 33.8 °F 30.8 °F 26.6 °F 75% 30.12 in 10.0 mi WNW 3.5 mph - N/A   Clear
6:15 AM 33.8 °F - 26.6 °F 75% 30.13 in 10.0 mi Calm Calm - N/A   Clear
6:35 AM 33.8 °F 30.8 °F 26.6 °F 75% 30.13 in 10.0 mi West 3.5 mph - N/A   Clear
6:55 AM 32.0 °F 28.7 °F 26.6 °F 80% 30.14 in 10.0 mi West 3.5 mph - N/A   Clear
7:15 AM 32.0 °F 28.7 °F 26.6 °F 80% 30.15 in 10.0 mi West 3.5 mph - N/A   Clear
7:35 AM 33.8 °F 30.8 °F 26.6 °F 75% 30.15 in 10.0 mi WNW 3.5 mph - N/A   Clear
7:55 AM 33.8 °F 30.8 °F 28.4 °F 81% 30.16 in 10.0 mi West 3.5 mph - N/A   Clear
8:15 AM 35.6 °F 31.7 °F 28.4 °F 75% 30.17 in 10.0 mi WNW 4.6 mph - N/A   Clear
8:35 AM 37.4 °F 31.4 °F 26.6 °F 65% 30.17 in 10.0 mi WNW 8.1 mph - N/A   Clear
8:55 AM 39.2 °F 35.9 °F 26.6 °F 61% 30.17 in 10.0 mi WNW 4.6 mph - N/A   Clear
9:15 AM 41.0 °F 35.2 °F 26.6 °F 57% 30.17 in 10.0 mi WNW 9.2 mph - N/A   Clear
9:35 AM 41.0 °F 36.4 °F 26.6 °F 57% 30.18 in 10.0 mi NW 6.9 mph - N/A   Clear
9:55 AM 42.8 °F 38.0 °F 24.8 °F 49% 30.18 in 10.0 mi NW 8.1 mph 16.1 mph N/A   Clear
10:15 AM 42.8 °F 37.5 °F 23.0 °F 46% 30.18 in 10.0 mi NW 9.2 mph - N/A   Clear
10:35 AM 44.6 °F 39.7 °F 23.0 °F 43% 30.17 in 10.0 mi WNW 9.2 mph - N/A   Clear
10:55 AM 44.6 °F 42.2 °F 23.0 °F 43% 30.17 in 10.0 mi NW 4.6 mph - N/A   Clear
11:15 AM 46.4 °F 42.4 °F 21.2 °F 37% 30.17 in 10.0 mi West 8.1 mph 17.3 mph N/A   Clear
11:35 AM 46.4 °F 42.9 °F 21.2 °F 37% 30.16 in 10.0 mi WNW 6.9 mph 20.7 mph N/A   Clear
11:55 AM 46.4 °F 42.4 °F 23.0 °F 40% 30.16 in 10.0 mi NW 8.1 mph - N/A   Scattered Clouds
12:15 PM 46.4 °F 42.4 °F 21.2 °F 37% 30.16 in 10.0 mi NNW 8.1 mph 20.7 mph N/A   Scattered Clouds
12:35 PM 46.4 °F 41.9 °F 21.2 °F 37% 30.16 in 10.0 mi NW 9.2 mph - N/A   Scattered Clouds
12:55 PM 48.2 °F - 21.2 °F 34% 30.15 in 10.0 mi NW 9.2 mph 17.3 mph N/A   Scattered Clouds
1:15 PM 48.2 °F - 21.2 °F 34% 30.15 in 10.0 mi WNW 9.2 mph 20.7 mph N/A   Scattered Clouds
1:35 PM 48.2 °F - 21.2 °F 34% 30.15 in 10.0 mi WNW 3.5 mph 17.3 mph N/A   Scattered Clouds
1:55 PM 50.0 °F - 21.2 °F 32% 30.15 in 10.0 mi NW 9.2 mph 17.3 mph N/A   Mostly Cloudy
2:15 PM 50.0 °F - 21.2 °F 32% 30.14 in 10.0 mi WNW 9.2 mph - N/A   Overcast
2:35 PM 50.0 °F - 21.2 °F 32% 30.14 in 10.0 mi West 8.1 mph - N/A   Overcast
2:55 PM 50.0 °F - 21.2 °F 32% 30.13 in 10.0 mi WNW 9.2 mph 16.1 mph N/A   Mostly Cloudy
3:15 PM 48.2 °F - 21.2 °F 34% 30.13 in 10.0 mi NW 9.2 mph - N/A   Mostly Cloudy
3:35 PM 50.0 °F - 19.4 °F 30% 30.13 in 10.0 mi West 9.2 mph - N/A   Mostly Cloudy
3:55 PM 50.0 °F - 19.4 °F 30% 30.13 in 10.0 mi NW 8.1 mph 20.7 mph N/A   Overcast
4:15 PM 50.0 °F - 19.4 °F 30% 30.12 in 10.0 mi WNW 6.9 mph - N/A   Overcast
4:35 PM 48.2 °F - 19.4 °F 32% 30.13 in 10.0 mi WNW 4.6 mph 19.6 mph N/A   Overcast
4:55 PM 50.0 °F - 19.4 °F 30% 30.12 in 10.0 mi West 10.4 mph 17.3 mph N/A   Mostly Cloudy
5:15 PM 50.0 °F - 19.4 °F 30% 30.13 in 10.0 mi West 9.2 mph - N/A   Mostly Cloudy
5:35 PM 50.0 °F - 19.4 °F 30% 30.13 in 10.0 mi NNW 9.2 mph 23.0 mph N/A   Overcast
5:55 PM 48.2 °F - 19.4 °F 32% 30.14 in 10.0 mi WNW 8.1 mph 19.6 mph N/A   Scattered Clouds
6:15 PM 46.4 °F 41.9 °F 19.4 °F 34% 30.14 in 10.0 mi WNW 9.2 mph - N/A   Scattered Clouds
6:35 PM 48.2 °F - 19.4 °F 32% 30.14 in 10.0 mi NW 4.6 mph - N/A   Scattered Clouds
6:55 PM 46.4 °F 41.9 °F 19.4 °F 34% 30.14 in 10.0 mi NW 9.2 mph 16.1 mph N/A   Clear
7:15 PM 46.4 °F 43.5 °F 19.4 °F 34% 30.16 in 10.0 mi NW 5.8 mph - N/A   Clear
7:35 PM 44.6 °F 42.2 °F 19.4 °F 37% 30.16 in 10.0 mi WNW 4.6 mph - N/A   Clear
7:55 PM 44.6 °F 42.2 °F 19.4 °F 37% 30.18 in 10.0 mi WNW 4.6 mph - N/A   Clear
8:15 PM 42.8 °F 41.1 °F 19.4 °F 39% 30.18 in 10.0 mi WNW 3.5 mph - N/A   Clear
8:35 PM 42.8 °F 41.1 °F 19.4 °F 39% 30.19 in 10.0 mi WNW 3.5 mph - N/A   Clear
8:55 PM 42.8 °F 40.1 °F 21.2 °F 42% 30.20 in 10.0 mi WNW 4.6 mph - N/A   Clear
9:15 PM 41.0 °F 38.0 °F 21.2 °F 45% 30.20 in 10.0 mi West 4.6 mph - N/A   Clear
9:35 PM 41.0 °F 39.0 °F 21.2 °F 45% 30.21 in 10.0 mi NW 3.5 mph - N/A   Clear
9:55 PM 41.0 °F - 21.2 °F 45% 30.22 in 10.0 mi Calm Calm - N/A   Clear
10:15 PM 39.2 °F - 21.2 °F 49% 30.21 in 10.0 mi Calm Calm - N/A   Clear
10:35 PM 35.6 °F - 23.0 °F 60% 30.21 in 10.0 mi Calm Calm - N/A   Clear
10:55 PM 33.8 °F - 23.0 °F 65% 30.21 in 10.0 mi Calm Calm - N/A   Clear
11:15 PM 35.6 °F - 21.2 °F 56% 30.21 in 10.0 mi Calm Calm - N/A   Clear
11:35 PM 32.0 °F - 23.0 °F 69% 30.22 in 10.0 mi Calm Calm - N/A   Clear
11:55 PM 35.6 °F - 23.0 °F 60% 30.21 in 10.0 mi Calm Calm - N/A   Clear